Starlink 3529

operational
NORAD ID: 51724 Int'l Des: 2022-016 Owner: SPXS Country: US Constellation: starlink
LEOCIRCULAR

关于 Starlink 3529

正在加载描述...

实时位置

正在加载3D地球...

即将过境

高度历史

Altitude vs Time

uPlot chart will show altitude changes over time

两行轨道根数

1 51724U 22016L 25303.94209557 .00001934 00000-0 13955-3 0 9997
2 51724 53.2172 191.5805 0001221 94.0774 266.0358 15.08850499203832
Epoch: Oct 30, 2025 • Age: 6 hours

当前状态

高度 539.7 km
速度 7.59 km/s
星下点 11.08°N, 83.54°E
发射日期 Feb 21, 2022
运行时间 3.6 years
类型 internet

技术详情

分类 Payload
质量 297.00 kg
干质量 275.00 kg
总质量 297.00 kg
长度 0.20 m
直径 2.80 m
跨度 9.00 m
形状 Box + pan
制造商 SPXS
平台类型 Starlink
阶段状态 In Orbit
所有者/国家 SPXS/US

大型星座

Loading constellations...